Weather Roundup
Issued by NWS Springfield, MO

Home | Current Version | Previous Version | Text Only | Print | Product List | Glossary On
Versions: 1 2 3 4 5 6 7 8 9 10 11 12 13 14 15 16 17 18 19 20 21 22 23 24 25 26 27 28 29 30 31 32 33 34 35 36 37 38 39 40 41 42 43 44 45 46 47 48 49 50
000
NZUS99 KSGF 272257
HRRSGF

HOURLY WEATHER
NATIONAL WEATHER SERVICE SPRINGFIELD MO
500 PM CST MON FEB 27 2017

......SGF CWA......

CITY           SKY/WX    TMP DP  RH WIND       PRES   REMARKS
SPRINGFIELD    MOSUNNY   66  45  46 SE18G29   29.88F
JOPLIN         MOSUNNY   67  53  61 S18G28    29.85F
WEST PLAINS    CLOUDY    61  47  59 S12       30.00S
ROLLA          CLOUDY    63  36  36 MISG      29.93F
BRANSON        PTSUNNY   63  48  59 SE12      29.94S

......SURROUNDING SGF CWA......

CITY           SKY/WX    TMP DP  RH WIND       PRES   REMARKS
CHANUTE        MOSUNNY   66  50  56 S17G26    29.80F
PARSONS        SUNNY     65  53  65 S18G25    29.82S
COFFEYVILLE    MOSUNNY   66  54  65 S16       29.82S
EMPORIA        CLOUDY    61  46  57 S16       29.76S
HARRISON AR    CLOUDY    63  52  67 S15       29.95S

......KANSAS AND MISSOURI......

CITY           SKY/WX    TMP DP  RH WIND       PRES   REMARKS
KANSAS CTY INT PTSUNNY   62  35  36 SE13      29.79F
SEDALIA        PTSUNNY   65  35  33 S16       29.87F
ST JOSEPH      PTSUNNY   60  34  37 SE20      29.79F
ST LOUIS       MOCLDY    64  39  39 SE10      29.99F
WICHITA        CLOUDY    61  49  64 S12       29.73F
TOPEKA         SUNNY     64  46  52 S16G24    29.75F
OLATHE         CLOUDY    62  43  49 S14G22    29.79F

......TENNESSEE......

CITY           SKY/WX    TMP DP  RH WIND       PRES   REMARKS
MEMPHIS        NOT AVBL
NASHVILLE      MOCLDY    61  42  49 SE12      30.16S

......ARKANSAS.......

CITY           SKY/WX    TMP DP  RH WIND       PRES   REMARKS
FAYETTEVILLE   SUNNY     63  52  67 SE15G25   29.91F
FT SMITH       CLOUDY    64  54  69 SE8       29.91F
LITTLE ROCK    CLOUDY    59  56  89 E9        30.02F

......OKLAHOMA.......

CITY           SKY/WX    TMP DP  RH WIND       PRES   REMARKS
TULSA          PTSUNNY   66  58  75 S17G31    29.82R
PONCA CITY     CLOUDY    74  46  36 S9G18     29.74F
MCALESTER      CLOUDY    64  57  78 SE10G18   29.88S
OKLAHOMA CITY  MOSUNNY   72  55  55 S20G26    29.78F

......IOWA............

CITY           SKY/WX    TMP DP  RH WIND       PRES   REMARKS
DES MOINES     NOT AVBL
QUAD CITIES    CLOUDY    54  31  41 S9        29.98F

......ILLINOIS........

CITY           SKY/WX    TMP DP  RH WIND       PRES   REMARKS
QUINCY         NOT AVBL
CHICAGO        CLOUDY    51  32  48 S6        30.06F




USA.gov is the U.S. government's official web portal to all federal, state and local government web resources and services.